Weather History for Hamilton Island, QU

Change the Weather History Date:

Tuesday, August 27, 2013

  Actual Average Record
Temperature  
Mean Temperature 70 °F -  
Max Temperature 75 °F - - ()
Min Temperature 65 °F - - ()
Cooling Degree Days 5    
Growing Degree Days 20 (Base 50)    
Moisture  
Dew Point 64 °F    
Average Humidity 81    
Maximum Humidity 100    
Minimum Humidity 57    
Precipitation  
Precipitation 0.03 in - - ()
Sea Level Pressure  
Sea Level Pressure 30.13 in    
Wind  
Wind Speed 14 mph ()    
Max Wind Speed 23 mph    
Max Gust Speed -    
T = Trace of Precipitation, MM = Missing Value Source: Averaged Metar Reports

Daily Weather History Graph

Daily Weather History Graph

Search for Another Location

Airport:

Trip Planner

Search our weather history database for the weather conditions in past years. The results will help you decide how hot, cold, wet, or windy it might be!

Date:

Astronomy

Aug. 27, 2013 Rise Set
Actual Time 6:17 AM AEST 5:54 PM AEST
Civil Twilight 5:55 AM AEST 6:16 PM AEST
Nautical Twilight 5:29 AM AEST 6:42 PM AEST
Astronomical Twilight 5:03 AM AEST 7:08 PM AEST
Moon 11:40 PM AEST (8/27) 10:21 AM AEST (8/27)
Length of Visible Light 12h 21m
Length of Day
11h 36m
Waning Gibbous, 63% of the Moon is Illuminated
Aug 27
Waning Gibbous
Aug 28
Last Quarter
Sep 5
New
Sep 13
First Quarter
Sep 19
Full

Hourly Weather History & Observations

Time (AEST) Temp. Dew Point Humidity Pressure Visibility Wind Dir Wind Speed Gust Speed Precip Events Conditions
12:00 AM 69 °F 65 °F 84% 30.15 in - ESE 15.0 mph - -  
12:00 AM 69.8 °F 64.4 °F 83% 30.15 in - ESE 15.0 mph - N/A   Unknown
12:30 AM 69.8 °F 64.4 °F 83% 30.15 in - ESE 16.1 mph - N/A   Unknown
1:00 AM 69.8 °F 64.4 °F 83% 30.15 in - ESE 15.0 mph - N/A   Unknown
1:30 AM 69.8 °F 64.4 °F 83% 30.12 in - ESE 13.8 mph - N/A   Unknown
2:00 AM 69.8 °F 64.4 °F 83% 30.12 in - ESE 13.8 mph - N/A   Unknown
2:30 AM 69.8 °F 62.6 °F 78% 30.12 in - ESE 12.7 mph - N/A   Unknown
3:00 AM 69 °F 64 °F 77% 30.12 in - SE 12.7 mph - -  
3:00 AM 68.0 °F 64.4 °F 88% 30.12 in - SE 12.7 mph - N/A   Unknown
3:30 AM 68.0 °F 62.6 °F 83% 30.12 in - SE 13.8 mph - N/A   Unknown
4:00 AM 68.0 °F 64.4 °F 88% 30.12 in - ESE 15.0 mph - N/A   Unknown
4:30 AM 68.0 °F 64.4 °F 88% 30.12 in - SE 13.8 mph - N/A   Unknown
5:00 AM 68.0 °F 66.2 °F 94% 30.12 in - SSE 15.0 mph - N/A   Unknown
5:30 AM 68.0 °F 66.2 °F 94% 30.12 in - SSE 16.1 mph - N/A   Unknown
6:00 AM 68.0 °F 66.2 °F 94% 30.12 in - SSE 16.1 mph - N/A   Unknown
6:30 AM 68.0 °F 66.2 °F 94% 30.12 in - SSE 16.1 mph - N/A   Unknown
7:00 AM 68.0 °F 66.2 °F 94% 30.15 in - SSE 15.0 mph - N/A   Unknown
7:30 AM 68.0 °F 66.2 °F 94% 30.15 in - South 11.5 mph - N/A   Unknown
8:00 AM 68.0 °F 66.2 °F 94% 30.15 in - South 15.0 mph - N/A   Unknown
8:30 AM 68.0 °F 66.2 °F 94% 30.18 in - South 15.0 mph - N/A   Unknown
9:00 AM 68 °F 67 °F 94% 30.19 in - SSE 15.0 mph - -  
9:00 AM 68.0 °F 66.2 °F 94% 30.18 in - SSE 15.0 mph - N/A   Unknown
9:30 AM 68.0 °F 68.0 °F 100% 30.18 in - SSE 16.1 mph - N/A   Unknown
10:00 AM 69.8 °F 68.0 °F 94% 30.18 in - SSE 9.2 mph - N/A   Unknown
10:38 AM 69.8 °F 66.2 °F 88% 30.18 in - East 23.0 mph - N/A   Unknown
11:00 AM 73.4 °F 66.2 °F 78% 30.18 in - East 13.8 mph - N/A   Unknown
11:30 AM 75.2 °F 62.6 °F 65% 30.15 in - ESE 12.7 mph - N/A   Unknown
12:00 PM 75 °F 63 °F 57% 30.16 in - East 12.7 mph - -  
12:00 PM 75.2 °F 62.6 °F 65% 30.15 in - East 12.7 mph - N/A   Unknown
12:30 PM 75.2 °F 60.8 °F 61% 30.12 in - ESE 15.0 mph - N/A   Unknown
1:00 PM 75.2 °F 64.4 °F 69% 30.12 in - ESE 12.7 mph - N/A   Unknown
1:30 PM 75.2 °F 62.6 °F 65% 30.12 in - ESE 15.0 mph - N/A   Unknown
2:00 PM 73.4 °F 64.4 °F 73% 30.12 in - SSE 18.4 mph - N/A   Unknown
2:30 PM 73.4 °F 64.4 °F 73% 30.12 in - SSE 18.4 mph - N/A   Unknown
3:00 PM 72 °F 63 °F 67% 30.11 in - SSE 15.0 mph - -  
3:00 PM 73.4 °F 62.6 °F 69% 30.09 in - SSE 15.0 mph - N/A   Unknown
3:30 PM 71.6 °F 60.8 °F 69% 30.09 in - SSE 17.3 mph - N/A   Unknown
4:00 PM 71.6 °F 62.6 °F 73% 30.09 in - SSE 16.1 mph - N/A   Unknown
4:30 PM 71.6 °F 64.4 °F 78% 30.09 in - SE 17.3 mph - N/A   Unknown
5:00 PM 71.6 °F 62.6 °F 73% 30.09 in - ESE 16.1 mph - N/A   Unknown
5:30 PM 69.8 °F 64.4 °F 83% 30.09 in - ESE 15.0 mph - N/A   Unknown
6:00 PM 70 °F 65 °F 79% 30.12 in - ESE 13.8 mph - -  
6:00 PM 69.8 °F 64.4 °F 83% 30.09 in - ESE 13.8 mph - N/A   Unknown
6:30 PM 69.8 °F 66.2 °F 88% 30.12 in - ESE 13.8 mph - N/A   Unknown
7:00 PM 69.8 °F 64.4 °F 83% 30.12 in - East 17.3 mph - N/A   Unknown
7:30 PM 69.8 °F 62.6 °F 78% 30.12 in - East 16.1 mph - N/A   Unknown
8:00 PM 69.8 °F 64.4 °F 83% 30.12 in - East 16.1 mph - N/A   Unknown
8:30 PM 69.8 °F 62.6 °F 78% 30.15 in - East 16.1 mph - N/A   Unknown
9:00 PM 71 °F 64 °F 73% 30.15 in - East 16.1 mph - -  
9:00 PM 69.8 °F 64.4 °F 83% 30.15 in - East 16.1 mph - N/A   Unknown
9:30 PM 69.8 °F 62.6 °F 78% 30.15 in - East 15.0 mph - N/A   Unknown
10:00 PM 69.8 °F 62.6 °F 78% 30.15 in - East 16.1 mph - N/A   Unknown
10:30 PM 69.8 °F 62.6 °F 78% 30.15 in - East 15.0 mph - N/A   Unknown
11:00 PM 69.8 °F 62.6 °F 78% 30.15 in - East 15.0 mph - N/A   Unknown
11:30 PM 69.8 °F 64.4 °F 83% 30.15 in - East 13.8 mph - N/A   Unknown